Weather History for Idabel, OK

Change the Weather History Date:

Saturday, September 14, 2013

  Actual Average (KDEQ) Record (KDEQ)
Temperature  
Mean Temperature 76 °F 74 °F  
Max Temperature 89 °F 87 °F 102 °F (1980)
Min Temperature 62 °F 62 °F 40 °F (1902)
Degree Days  
Heating Degree Days 0 0  
Month to date heating degree days 0  
Since 1 July heating degree days 0  
Cooling Degree Days 10 10  
Month to date cooling degree days 169  
Year to date cooling degree days 1761  
Growing Degree Days 26 (Base 50)    
Moisture  
Dew Point 52 °F    
Average Humidity 48    
Maximum Humidity 72    
Minimum Humidity 26    
Precipitation  
Precipitation 0.00 in 0.13 in 2.40 in (1950)
Month to date precipitation 1.71  
Year to date precipitation 33.30  
Snow  
Snow 0.00 in - - ()
Month to date snowfall  
Since 1 July snowfall  
Since 1 September snowfall  
Snow Depth -    
Sea Level Pressure  
Sea Level Pressure 30.00 in    
Wind  
Wind Speed 8 mph (East)    
Max Wind Speed 17 mph    
Max Gust Speed 24 mph    
Visibility 10 miles    
Events      
T = Trace of Precipitation, MM = Missing Value Source: NWS Daily Summary

Daily Weather History Graph

Daily Weather History Graph

Search for Another Location

Airport:

Trip Planner

Search our weather history database for the weather conditions in past years. The results will help you decide how hot, cold, wet, or windy it might be!

Date:

Astronomy

Sep. 14, 2013 Rise Set
Actual Time 7:02 AM CDT 7:26 PM CDT
Civil Twilight 6:37 AM CDT 7:51 PM CDT
Nautical Twilight 6:07 AM CDT 8:21 PM CDT
Astronomical Twilight 5:37 AM CDT 8:51 PM CDT
Moon 3:58 PM CDT (9/14) 1:46 AM CDT (9/14)
Length of Visible Light 13h 14m
Length of Day
12h 24m
Waxing Gibbous, 72% of the Moon is Illuminated
Sep 14
Waxing Gibbous
Sep 19
Full
Sep 26
Last Quarter
Oct 4
New
Oct 11
First Quarter

Hourly Weather History & Observations

Time (CDT) Temp. Dew Point Humidity Pressure Visibility Wind Dir Wind Speed Gust Speed Precip Events Conditions
12:15 AM 71.6 °F 57.2 °F 60% 29.98 in 10.0 mi East 6.9 mph - N/A   Clear
12:35 AM 71.6 °F 55.4 °F 57% 29.98 in 10.0 mi East 10.4 mph 16.1 mph N/A   Clear
12:55 AM 71.6 °F 55.4 °F 57% 29.99 in 10.0 mi East 9.2 mph - N/A   Clear
1:15 AM 71.6 °F 53.6 °F 53% 29.99 in 10.0 mi East 11.5 mph 17.3 mph N/A   Clear
1:35 AM 71.6 °F 51.8 °F 50% 29.99 in 10.0 mi East 10.4 mph - N/A   Clear
1:55 AM 69.8 °F 51.8 °F 53% 29.99 in 10.0 mi East 9.2 mph - N/A   Clear
2:15 AM 69.8 °F 51.8 °F 53% 29.99 in 10.0 mi East 8.1 mph - N/A   Clear
2:35 AM 69.8 °F 51.8 °F 53% 29.99 in 10.0 mi East 8.1 mph - N/A   Clear
2:55 AM 68.0 °F 51.8 °F 56% 29.99 in 10.0 mi East 8.1 mph - N/A   Clear
3:15 AM 68.0 °F 51.8 °F 56% 29.98 in 10.0 mi ENE 8.1 mph - N/A   Clear
3:35 AM 66.2 °F 53.6 °F 64% 29.99 in 10.0 mi East 5.8 mph - N/A   Clear
3:55 AM 66.2 °F 53.6 °F 64% 29.98 in 10.0 mi East 5.8 mph - N/A   Clear
4:15 AM 64.4 °F 53.6 °F 68% 29.98 in 10.0 mi East 5.8 mph - N/A   Clear
4:35 AM 64.4 °F 53.6 °F 68% 29.99 in 10.0 mi East 6.9 mph - N/A   Clear
4:55 AM 64.4 °F 53.6 °F 68% 29.99 in 10.0 mi East 4.6 mph - N/A   Clear
5:15 AM 62.6 °F 53.6 °F 72% 29.99 in 10.0 mi ENE 5.8 mph - N/A   Clear
5:35 AM 62.6 °F 53.6 °F 72% 29.99 in 10.0 mi ENE 5.8 mph - N/A   Clear
5:55 AM 62.6 °F 53.6 °F 72% 29.99 in 10.0 mi ENE 6.9 mph - N/A   Clear
6:15 AM 62.6 °F 53.6 °F 72% 30.00 in 10.0 mi ENE 6.9 mph - N/A   Clear
6:35 AM 62.6 °F 53.6 °F 72% 30.01 in 10.0 mi East 6.9 mph - N/A   Clear
6:55 AM 62.6 °F 53.6 °F 72% 30.02 in 10.0 mi East 5.8 mph - N/A   Clear
7:15 AM 62.6 °F 53.6 °F 72% 30.02 in 10.0 mi East 5.8 mph - N/A   Clear
7:35 AM 62.6 °F 53.6 °F 72% 30.03 in 10.0 mi East 4.6 mph - N/A   Clear
7:55 AM 62.6 °F 53.6 °F 72% 30.04 in 10.0 mi East 6.9 mph - N/A   Clear
8:15 AM 64.4 °F 53.6 °F 68% 30.04 in 10.0 mi East 6.9 mph - N/A   Scattered Clouds
8:35 AM 64.4 °F 53.6 °F 68% 30.05 in 10.0 mi East 10.4 mph - N/A   Clear
8:55 AM 68.0 °F 53.6 °F 60% 30.05 in 10.0 mi East 8.1 mph - N/A   Clear
9:15 AM 68.0 °F 51.8 °F 56% 30.05 in 10.0 mi East 12.7 mph - N/A   Clear
9:35 AM 69.8 °F 51.8 °F 53% 30.05 in 10.0 mi East 15.0 mph - N/A   Scattered Clouds
9:55 AM 69.8 °F 51.8 °F 53% 30.06 in 10.0 mi East 13.8 mph 18.4 mph N/A   Clear
10:15 AM 71.6 °F 51.8 °F 50% 30.06 in 10.0 mi East 17.3 mph 24.2 mph N/A   Clear
10:35 AM 73.4 °F 51.8 °F 47% 30.05 in 10.0 mi East 13.8 mph 19.6 mph N/A   Clear
10:55 AM 75.2 °F 50.0 °F 41% 30.05 in 10.0 mi ESE 12.7 mph 19.6 mph N/A   Clear
11:15 AM 77.0 °F 50.0 °F 39% 30.05 in 10.0 mi East 13.8 mph 18.4 mph N/A   Clear
11:35 AM 78.8 °F 50.0 °F 36% 30.05 in 10.0 mi East 13.8 mph - N/A   Clear
11:55 AM 78.8 °F 50.0 °F 36% 30.05 in 10.0 mi ESE 12.7 mph - N/A   Clear
12:15 PM 78.8 °F 50.0 °F 36% 30.04 in 10.0 mi East 10.4 mph 16.1 mph N/A   Clear
12:35 PM 80.6 °F 50.0 °F 34% 30.04 in 10.0 mi ESE 9.2 mph - N/A   Clear
12:55 PM 80.6 °F 50.0 °F 34% 30.04 in 10.0 mi ESE 10.4 mph - N/A   Clear
1:15 PM 82.4 °F 50.0 °F 32% 30.03 in 10.0 mi SE 11.5 mph - N/A   Clear
1:35 PM 82.4 °F 50.0 °F 32% 30.02 in 10.0 mi ESE 11.5 mph - N/A   Clear
1:55 PM 84.2 °F 50.0 °F 30% 30.01 in 10.0 mi ESE 9.2 mph - N/A   Clear
2:15 PM 86.0 °F 50.0 °F 29% 30.00 in 10.0 mi ESE 10.4 mph - N/A   Clear
2:35 PM 86.0 °F 50.0 °F 29% 30.00 in 10.0 mi ESE 9.2 mph - N/A   Clear
2:55 PM 87.8 °F 50.0 °F 27% 29.99 in 10.0 mi East 3.5 mph - N/A   Clear
3:15 PM 87.8 °F 50.0 °F 27% 29.98 in 10.0 mi ENE 8.1 mph - N/A   Clear
3:35 PM 87.8 °F 50.0 °F 27% 29.97 in 10.0 mi East 6.9 mph - N/A   Clear
3:55 PM 89.6 °F 50.0 °F 26% 29.97 in 10.0 mi East 10.4 mph - N/A   Clear
4:15 PM 89.6 °F 51.8 °F 27% 29.96 in 10.0 mi ESE 8.1 mph - N/A   Clear
4:35 PM 89.6 °F 51.8 °F 27% 29.95 in 10.0 mi SE 8.1 mph - N/A   Clear
4:55 PM 89.6 °F 50.0 °F 26% 29.95 in 10.0 mi ENE 5.8 mph - N/A   Clear
5:15 PM 89.6 °F 51.8 °F 27% 29.95 in 10.0 mi ESE 4.6 mph - N/A   Clear
5:35 PM 87.8 °F 51.8 °F 29% 29.95 in 10.0 mi ESE 8.1 mph - N/A   Clear
5:55 PM 87.8 °F 51.8 °F 29% 29.95 in 10.0 mi ESE 8.1 mph - N/A   Clear
6:15 PM 87.8 °F 51.8 °F 29% 29.95 in 10.0 mi ESE 5.8 mph - N/A   Clear
6:35 PM 86.0 °F 51.8 °F 31% 29.96 in 10.0 mi East 6.9 mph - N/A   Clear
6:55 PM 86.0 °F 51.8 °F 31% 29.96 in 10.0 mi ESE 5.8 mph - N/A   Clear
7:15 PM 82.4 °F 51.8 °F 35% 29.96 in 10.0 mi ESE 5.8 mph - N/A   Clear
7:35 PM 78.8 °F 53.6 °F 42% 29.96 in 10.0 mi ESE 5.8 mph - N/A   Clear
7:55 PM 77.0 °F 53.6 °F 44% 29.96 in 10.0 mi East 5.8 mph - N/A   Clear
8:15 PM 77.0 °F 53.6 °F 44% 29.97 in 10.0 mi ESE 6.9 mph - N/A   Clear
8:35 PM 75.2 °F 53.6 °F 47% 29.97 in 10.0 mi ESE 8.1 mph - N/A   Clear
8:55 PM 75.2 °F 53.6 °F 47% 29.98 in 10.0 mi ESE 8.1 mph - N/A   Clear
9:15 PM 73.4 °F 51.8 °F 47% 29.98 in 10.0 mi ESE 6.9 mph - N/A   Clear
9:35 PM 73.4 °F 51.8 °F 47% 29.99 in 10.0 mi East 8.1 mph - N/A   Clear
9:55 PM 73.4 °F 51.8 °F 47% 29.99 in 10.0 mi East 6.9 mph - N/A   Clear
10:15 PM 71.6 °F 50.0 °F 46% 30.00 in 10.0 mi East 8.1 mph - N/A   Clear
10:35 PM 71.6 °F 50.0 °F 46% 30.00 in 10.0 mi East 8.1 mph - N/A   Clear
10:55 PM 69.8 °F 50.0 °F 49% 30.01 in 10.0 mi East 8.1 mph - N/A   Clear
11:15 PM 69.8 °F 48.2 °F 46% 30.01 in 10.0 mi East 8.1 mph - N/A   Clear
11:35 PM 69.8 °F 48.2 °F 46% 30.02 in 10.0 mi East 6.9 mph - N/A   Clear
11:55 PM 68.0 °F 50.0 °F 52% 30.02 in 10.0 mi East 5.8 mph - N/A   Clear